Tracking 19817 objects as of 19-Aug-2019
HD Live streaming from Space Station
objects crossing your sky now

COSMOS 2251 DEB

Track COSMOS 2251 DEB now!
10-day predictions


NORAD ID: 35825
Int'l Code: 1993-036ASX
Perigee: 754.5 km
Apogee: 1,311.4 km
Inclination: 74.1 °
Period: 105.7 minutes
Semi major axis: 7403 km
RCS: 0.0121 m2 (small)
Launch date: June 16, 1993
Source: Commonwealth of Independent States (former USSR) (CIS)
Launch site: PLESETSK MISSILE AND SPACE COMPLEX (PKMTR)

Note: This is SATELLITE DEBRIS
aabbcc
Your satellite tracking list
Your tracking list is empty




NASA's NSSDC Master Catalog

Two Line Element Set (TLE):
1 35825U 93036ASX 19230.84975980 +.00000464 +00000-0 +38779-3 0  9990
2 35825 074.1188 300.3465 0376099 221.0076 136.2200 13.62733915510119
Source of the keplerian elements: AFSPC